Location: Katowice
(50.2611°N, 19.0242°E)
Time: 11:00:45
(UTC+02:00)

Explorer 7 - Pass Details

Date: 26 August 2019
Orbit: 485 x 680 km, 50.3° (Epoch: 24 September)

Event Time Altitude Azimuth Distance (km) Brightness Sun altitude
Rises 11:47:59 0° 270° (W) 2,989 10.4 48.4°
Reaches altitude 10° 11:50:23 10° 271° (W) 2,054 9.7 48.6°
Maximum altitude 11:55:08 88° 1° (N) 632 8.0 48.8°
Drops below altitude 10° 11:59:37 10° 91° (E) 1,938 9.9 49.0°
Sets 12:01:49 0° 92° (E) 2,806 10.6 49.2°
